Regional Weather Roundup
Issued by NWS Mt. Holly, NJ

Home | Current Version | Previous Version | Text Only | Print | Product List | Glossary On
Versions: 1 2 3 4 5 6 7 8 9 10 11 12 13 14 15 16 17 18 19 20 21 22 23 24 25 26 27 28
000
ASUS41 KPHI 230612
RWRPHI

REGIONAL WEATHER ROUNDUP
NATIONAL WEATHER SERVICE MOUNT HOLLY NJ
200 AM EDT SAT SEP 23 2017

NOTE:  "FAIR" INDICATES FEW OR NO CLOUDS BELOW 12,000 FEET WITH NO
SIGNIFICANT WEATHER AND/OR OBSTRUCTIONS TO VISIBILITY.

 * = STATION DOES NOT REPORT PRECIPITATION (E.G. RAIN, SNOW, ETC.)
        OR FOG.

NJZ015>026-230700-
SOUTHERN NEW JERSEY

CITY           SKY/WX    TMP DP  RH WIND       PRES   REMARKS
POMONA         PTCLDY    67  60  78 NW6       29.98S
6HR MIN TEMP:  67; 6HR MAX TEMP:  73;

MILLVILLE      CLEAR     70  60  70 N6        29.99S
WRIGHTSTOWN    CLEAR     65  56  72 NW6       29.96S
MOUNT HOLLY    CLEAR     68  57  68 CALM      29.99S
TRENTON        CLEAR     70  54  56 N7        30.00S
6HR MIN TEMP:  69; 6HR MAX TEMP:  75;


$$
NJZ001>014-230700-
NORTHERN NEW JERSEY

CITY           SKY/WX    TMP DP  RH WIND       PRES   REMARKS
SUSSEX         CLEAR     58  57  97 CALM      30.04S
ANDOVER*         N/A     58  57  97 CALM      30.04F
MORRISTOWN     CLEAR     66  54  63 CALM      30.01S
NEWARK         PTCLDY    72  54  53 N9        29.99S
TETERBORO      CLEAR     73  54  51 N3        29.98S
CALDWELL       CLEAR     65  56  72 CALM      30.01S
ALLAIRE*       CLEAR     70  57  63 N10       29.99S
TOMS RIVER*    PTCLDY    67  56  67 N6        29.99S

$$
PAZ043-044-047-054-055-060>062-066>071-230700-
EASTERN PENNSYLVANIA

CITY           SKY/WX    TMP DP  RH WIND       PRES   REMARKS
PHILADELPHIA   PTCLDY    71  53  52 N5        30.01S
6HR MIN TEMP:  70; 6HR MAX TEMP:  78;

NORTH PHILA    CLEAR     70  56  61 N5        30.02R
BLUE BELL*     CLEAR     64  52  63 CALM      30.03S
DOYLESTOWN     CLEAR     66  52  60 N5        30.01F
QUAKERTOWN*    CLEAR     66  50  55 N5        30.04S
PERKASIE*      FAIR      63  52  67 CALM      30.04S
POTTSTOWN      CLEAR     64  54  69 W3        30.05S
LANCASTER      PTCLDY    63  57  81 CALM      30.04S
COATESVILLE    CLEAR     66  52  59 N6        30.05F
READING        CLEAR     61  58  90 CALM      30.03S
6HR MIN TEMP:  60; 6HR MAX TEMP:  71;

ALLENTOWN      CLEAR     63  52  67 SW5       30.03F
6HR MIN TEMP:  60; 6HR MAX TEMP:  72;

MOUNT POCONO   CLEAR     62  52  69 NW7       30.10S
6HR MIN TEMP:  61; 6HR MAX TEMP:  65;

HAZLETON       CLEAR     63  50  63 N3        30.13R
LEHIGHTON      FAIR      55  52  88 CALM      30.06F
WILKES BARRE   CLEAR     59  50  72 E6        30.09S

$$
DEZALL-MDZ008-012-015-019-020-230700-
DELAWARE AND EASTERN MARYLAND

CITY           SKY/WX    TMP DP  RH WIND       PRES   REMARKS
WILMINGTON     CLEAR     65  55  70 N6        30.01F
6HR MIN TEMP:  65; 6HR MAX TEMP:  71;

DOVER          CLEAR     64  57  77 N7        29.99R
GEORGETOWN     CLEAR     70  60  70 N5        29.99S
6HR MIN TEMP:  67; 6HR MAX TEMP:  72;

EASTON         CLEAR     67  63  84 CALM      30.04S
ABERDEEN       PTCLDY    65  57  74 CALM      30.01S
PATUXENT       CLEAR     68  65  90 W3        30.00S
OCEAN CITY     CLEAR     67  63  87 NW6       29.98S
WALLOPS ISLAND CLEAR     70  66  87 NW7       29.99S
CAMBRIDGE      CLEAR     72  64  78 NW6       30.00R
SALISBURY      CLEAR     66  63  90 NW5       29.98S

$$
PAZ001-021-NYZ056-072-MDZ011-DCZ001-230700-
OTHER NEARBY LOCATIONS

CITY           SKY/WX    TMP DP  RH WIND       PRES   REMARKS
HARRISBURG     MOCLDY    65  61  87 NW10      30.04S
STATE COLLEGE  PTCLDY    58  55  88 CALM      30.11S
WILLIAMSPORT   CLEAR     58  54  86 CALM      30.08S
BINGHAMTON     CLEAR     59  56  89 NW3       30.11S
NEW YORK CITY  MOCLDY    72  56  57 VRB7      30.02S
BALTIMORE      MOCLDY    64  59  83 W3        30.01S
WASHINGTON DC  MOCLDY    69  62  78 N7        30.03R

$$




USA.gov is the U.S. government's official web portal to all federal, state and local government web resources and services.